Temp
-12 -12 -12 -12 -12 -12 -12 -12 -12 -12 -12 -12 -12 -11 -11 -11 -12 -12 -12 -12 -12 -12 -12 -12 -12 -12 -13 -13 -13 -13 -13 -13 -13 -13 -13 -13 -13 -13 -13 -13 -13 -13
-12 -12 -12 -12 -12 -12 -12 -12 -12 -12 -12 -12 -12 -12 -12 -12 -12 -12 -12 -12 -12 -12 -12 -13 -13 -13 -13 -13 -13 -13 -13 -13 -13 -13 -13 -13 -13 -13 -13 -13 -13 -13
-12 -12 -12 -12 -12 -12 -12 -12 -12 -12 -12 -12 -12 -12 -12 -12 -12 -12 -12 -12 -12 -12 -12 -13 -13 -13 -13 -13 -13 -13 -13 -13 -13 -13 -13 -13 -13 -13 -13 -13 -13 -13
-12 -12 -12 -12 -12 -12 -12 -12 -12 -12 -12 -12 -12 -12 -12 -12 -12 -12 -12 -12 -12 -12 -12 -13 -13 -13 -13 -13 -13 -13 -13 -13 -13 -13 -13 -13 -13 -13 -13 -13 -13 -13
-12 -12 -12 -12 -12 -12 -12 -12 -12 -12 -12 -12 -12 -12 -12 -12 -12 -12 -12 -12 -12 -12 -12 -13 -13 -13 -13 -13 -13 -13 -13 -13 -13 -13 -14 -14 -13 -13 -13 -13 -13 -13
-12 -12 -12 -12 -12 -12 -12 -12 -12 -12 -12 -12 -12 -12 -13 -13 -12 -12 -12 -12 -12 -12 -12 -13 -13 -13 -13 -13 -13 -13 -13 -14 -14 -14 -14 -14 -14 -14 -14 -14 -14 -14
-12 -12 -12 -12 -12 -12 -12 -12 -12 -12 -12 -12 -12 -12 -12 -12 -12 -12 -12 -12 -12 -12 -13 -13 -13 -13 -13 -13 -13 -13 -13 -14 -14 -14 -14 -14 -14 -14 -14 -14 -14 -14
-12 -12 -12 -12 -12 -12 -12 -12 -12 -12 -12 -12 -13 -12 -12 -12 -12 -12 -12 -12 -12 -12 -13 -13 -13 -13 -13 -13 -13 -13 -13 -13 -14 -14 -13 -13 -14 -14 -14 -14 -14 -14
-13 -13 -12 -12 -12 -12 -12 -12 -12 -12 -12 -12 -12 -12 -12 -12 -12 -13 -13 -13 -13 -13 -13 -13 -13 -13 -13 -13 -13 -13 -13 -13 -13 -13 -13 -13 -14 -14 -14 -14 -14 -14
-13 -13 -12 -12 -12 -12 -12 -13 -12 -12 -12 -12 -12 -12 -12 -13 -13 -13 -13 -13 -13 -13 -13 -13 -13 -13 -13 -13 -13 -13 -13 -13 -13 -14 -14 -14 -14 -14 -14 -14 -14 -13
-13 -13 -12 -12 -12 -12 -12 -12 -12 -12 -12 -13 -13 -13 -13 -13 -13 -13 -13 -13 -13 -13 -13 -13 -13 -13 -13 -13 -13 -13 -13 -13 -14 -14 -14 -14 -14 -14 -14 -14 -14 -13
-12 -12 -12 -12 -12 -12 -12 -12 -12 -13 -13 -13 -13 -13 -13 -13 -13 -13 -13 -13 -13 -13 -13 -13 -13 -13 -13 -14 -14 -14 -14 -14 -14 -14 -14 -14 -14 -14 -14 -14 -14 -14
-12 -12 -12 -13 -13 -13 -13 -13 -13 -13 -13 -13 -13 -13 -13 -13 -13 -13 -13 -13 -13 -13 -13 -13 -13 -13 -13 -14 -14 -14 -14 -14 -14 -14 -14 -14 -14 -14 -14 -14 -14 -14
-12 -12 -13 -13 -13 -13 -13 -13 -13 -13 -13 -13 -13 -13 -14 -13 -13 -13 -13 -13 -13 -13 -13 -13 -13 -13 -13 -14 -14 -14 -14 -14 -14 -14 -14 -14 -14 -14 -14 -14 -14 -14
-13 -13 -13 -13 -13 -13 -13 -13 -13 -13 -13 -13 -14 -14 -14 -13 -13 -13 -13 -13 -13 -13 -13 -13 -13 -13 -13 -14 -14 -14 -14 -14 -14 -14 -14 -14 -14 -14 -14 -14 -14 -14
-13 -13 -13 -13 -13 -13 -13 -14 -13 -13 -14 -14 -14 -13 -13 -13 -13 -13 -13 -13 -13 -13 -13 -13 -13 -13 -13 -14 -14 -14 -14 -14 -14 -14 -14 -14 -14 -14 -14 -14 -14 -14
-13 -13 -13 -13 -13 -13 -14 -14 -14 -14 -13 -13 -13 -13 -13 -13 -13 -14 -14 -14 -14 -14 -14 -14 -14 -14 -14 -14 -14 -14 -14 -14 -14 -14 -14 -14 -15 -15 -15 -15 -15 -15
-13 -13 -13 -13 -13 -13 -13 -13 -13 -13 -13 -13 -13 -13 -13 -13 -14 -14 -14 -14 -14 -14 -14 -14 -14 -14 -14 -14 -14 -14 -14 -15 -15 -15 -15 -15 -15 -15 -15 -15 -15 -15
-13 -13 -13 -13 -13 -13 -13 -13 -13 -13 -13 -13 -13 -14 -14 -14 -14 -14 -14 -14 -14 -14 -14 -14 -14 -14 -14 -14 -15 -15 -15 -15 -15 -15 -15 -15 -15 -15 -15 -15 -15 -16
-13 -13 -13 -13 -13 -13 -13 -13 -13 -13 -14 -14 -14 -14 -14 -14 -14 -14 -14 -14 -14 -14 -14 -15 -15 -15 -15 -15 -15 -15 -15 -15 -15 -15 -15 -15 -15 -16 -16 -16 -16 -16
-13 -13 -13 -13 -13 -13 -14 -14 -14 -14 -14 -14 -14 -14 -14 -14 -14 -14 -15 -15 -15 -15 -15 -15 -15 -15 -15 -15 -15 -15 -15 -16 -16 -16 -16 -16 -16 -16 -16 -16 -16 -16
-14 -14 -14 -14 -14 -14 -14 -14 -14 -14 -14 -14 -14 -14 -15 -15 -15 -15 -15 -15 -15 -15 -15 -16 -16 -16 -16 -16 -16 -16 -16 -16 -16 -16 -16 -16 -16 -16 -16 -16 -16 -16
-14 -14 -14 -14 -14 -14 -14 -15 -15 -15 -15 -15 -15 -15 -15 -15 -15 -15 -15 -16 -16 -16 -16 -16 -16 -16 -16 -16 -16 -16 -16 -16 -16 -16 -16 -16 -16 -17 -17 -17 -17 -17
-14 -14 -15 -15 -15 -15 -15 -15 -15 -15 -15 -16 -16 -16 -16 -16 -16 -16 -16 -16 -16 -16 -16 -16 -16 -16 -16 -16 -16 -16 -16 -17 -17 -17 -17 -17 -17 -17 -17 -17 -17 -17
-15 -15 -15 -15 -15 -15 -16 -16 -16 -16 -16 -16 -16 -16 -16 -16 -16 -16 -16 -16 -16 -16 -16 -16 -16 -16 -17 -17 -17 -17 -17 -17 -17 -17 -17 -17 -17 -17 -17 -17 -17 -17
-15 -16 -16 -16 -16 -16 -16 -16 -16 -16 -16 -16 -16 -16 -16 -16 -16 -16 -16 -17 -16 -16 -16 -16 -17 -17 -17 -17 -17 -17 -17 -17 -17 -17 -17 -17 -17 -17 -17 -17 -17 -17
Height
5790 5790 5790 5790 5789 5789 5788 5788 5788 5788 5787 5786 5786 5785 5785 5784 5783 5782 5781 5781 5780 5779 5778 5777 5777 5776 5775 5774 5773 5772 5772 5772 5772 5771 5771 5771 5771 5771 5771 5771 5771 5771
5788 5789 5788 5788 5787 5787 5786 5786 5786 5786 5785 5785 5784 5783 5783 5782 5781 5780 5779 5779 5778 5778 5776 5775 5774 5774 5773 5772 5771 5770 5769 5769 5769 5769 5768 5768 5768 5768 5768 5768 5768 5768
5786 5786 5786 5787 5786 5786 5785 5785 5785 5784 5784 5783 5782 5781 5781 5780 5779 5778 5777 5776 5776 5775 5775 5773 5772 5771 5771 5770 5769 5768 5767 5766 5766 5766 5765 5765 5765 5764 5764 5765 5765 5765
5784 5784 5785 5786 5786 5785 5785 5784 5783 5782 5781 5780 5779 5778 5778 5777 5777 5776 5775 5774 5773 5772 5772 5771 5770 5769 5769 5768 5767 5766 5765 5765 5764 5763 5763 5762 5762 5761 5761 5761 5761 5761
5783 5783 5784 5784 5784 5784 5783 5782 5781 5780 5779 5778 5776 5775 5775 5775 5775 5775 5774 5772 5771 5770 5769 5768 5767 5767 5767 5766 5765 5764 5763 5763 5762 5761 5760 5759 5759 5758 5758 5757 5757 5757
5782 5782 5782 5782 5782 5781 5780 5778 5778 5778 5777 5775 5774 5773 5772 5772 5772 5772 5772 5770 5769 5768 5766 5765 5764 5764 5764 5763 5762 5761 5760 5760 5760 5759 5758 5757 5756 5755 5754 5754 5754 5753
5781 5782 5782 5782 5780 5778 5777 5776 5775 5775 5774 5773 5772 5771 5770 5769 5769 5769 5769 5768 5766 5765 5764 5763 5762 5761 5761 5760 5758 5758 5757 5756 5756 5756 5755 5754 5753 5752 5752 5751 5751 5750
5779 5781 5781 5779 5778 5775 5774 5774 5773 5773 5772 5771 5769 5768 5767 5767 5766 5766 5765 5765 5764 5763 5762 5761 5760 5759 5758 5757 5755 5754 5754 5753 5752 5752 5751 5751 5750 5749 5749 5748 5748 5746
5778 5779 5778 5776 5775 5773 5773 5773 5772 5771 5770 5769 5767 5766 5765 5764 5763 5763 5762 5761 5760 5759 5759 5758 5758 5757 5755 5754 5752 5751 5750 5749 5749 5748 5748 5747 5747 5746 5745 5744 5743 5742
5776 5777 5775 5773 5772 5771 5771 5771 5770 5769 5768 5767 5766 5765 5764 5763 5762 5760 5759 5758 5757 5756 5755 5755 5755 5754 5753 5751 5750 5748 5747 5746 5746 5745 5744 5743 5742 5742 5741 5740 5739 5738
5774 5773 5772 5770 5769 5769 5769 5769 5768 5767 5767 5766 5764 5763 5763 5761 5760 5759 5758 5756 5755 5754 5753 5752 5752 5751 5750 5749 5748 5746 5745 5744 5743 5742 5741 5740 5739 5738 5737 5736 5735 5734
5771 5770 5769 5768 5768 5768 5768 5767 5766 5765 5764 5763 5762 5761 5760 5758 5758 5757 5756 5755 5754 5752 5751 5750 5749 5748 5747 5746 5745 5744 5742 5741 5741 5740 5738 5737 5736 5734 5734 5733 5731 5730
5769 5767 5767 5767 5767 5766 5766 5765 5764 5763 5761 5760 5759 5757 5756 5756 5755 5754 5753 5752 5751 5750 5748 5747 5747 5746 5744 5743 5742 5741 5739 5738 5738 5737 5736 5734 5733 5731 5730 5729 5728 5727
5767 5766 5766 5765 5765 5764 5763 5762 5761 5760 5758 5757 5756 5755 5754 5753 5752 5751 5750 5749 5748 5747 5745 5743 5743 5742 5740 5739 5738 5737 5736 5735 5734 5733 5732 5731 5730 5728 5727 5726 5724 5723
5765 5765 5764 5763 5762 5761 5760 5759 5758 5757 5756 5755 5754 5753 5751 5750 5749 5748 5747 5746 5745 5744 5742 5740 5738 5737 5736 5735 5734 5733 5732 5731 5730 5729 5728 5727 5725 5724 5723 5722 5720 5719
5763 5762 5761 5760 5759 5758 5757 5756 5755 5754 5754 5753 5752 5750 5748 5746 5746 5745 5744 5743 5741 5740 5738 5737 5735 5733 5732 5731 5730 5729 5728 5727 5726 5725 5723 5722 5721 5720 5719 5717 5716 5715
5760 5760 5759 5757 5756 5755 5754 5754 5753 5752 5751 5750 5748 5747 5745 5743 5742 5741 5740 5739 5737 5736 5734 5733 5731 5730 5729 5728 5727 5725 5724 5723 5722 5721 5720 5718 5717 5716 5714 5713 5712 5711
5759 5758 5757 5756 5755 5754 5753 5752 5751 5749 5748 5747 5745 5744 5742 5740 5739 5737 5736 5734 5733 5732 5731 5729 5728 5727 5726 5724 5723 5722 5721 5720 5718 5717 5716 5715 5713 5712 5711 5709 5708 5707
5757 5756 5755 5754 5753 5752 5750 5749 5747 5746 5745 5743 5742 5740 5739 5737 5735 5734 5732 5731 5730 5728 5727 5726 5725 5724 5722 5721 5720 5719 5717 5716 5715 5714 5712 5711 5710 5709 5707 5706 5704 5703
5754 5753 5752 5751 5749 5748 5747 5745 5744 5743 5741 5740 5739 5737 5736 5734 5732 5731 5729 5728 5726 5725 5724 5723 5722 5721 5719 5718 5717 5715 5714 5713 5712 5710 5709 5708 5707 5705 5704 5703 5701 5700
5751 5749 5748 5747 5746 5745 5744 5742 5741 5739 5738 5737 5735 5734 5732 5731 5729 5728 5726 5725 5724 5722 5721 5720 5719 5718 5716 5715 5714 5712 5711 5710 5709 5708 5706 5705 5704 5703 5701 5700 5698 5697
5747 5746 5745 5744 5743 5741 5740 5739 5737 5736 5735 5733 5732 5731 5729 5728 5727 5725 5724 5722 5721 5720 5719 5717 5716 5715 5714 5712 5711 5710 5708 5707 5706 5705 5703 5702 5701 5699 5698 5697 5695 5693
5743 5742 5741 5740 5739 5738 5737 5735 5734 5733 5732 5730 5729 5728 5727 5726 5724 5723 5722 5720 5719 5718 5716 5715 5714 5712 5711 5710 5708 5707 5706 5705 5703 5702 5701 5699 5698 5696 5695 5693 5692 5690
5740 5739 5738 5737 5736 5735 5734 5733 5731 5730 5729 5727 5726 5725 5724 5723 5722 5721 5719 5718 5717 5715 5714 5712 5711 5710 5709 5707 5706 5705 5703 5702 5700 5699 5697 5696 5694 5693 5691 5690 5688 5687
5737 5736 5735 5734 5733 5732 5731 5730 5729 5728 5726 5725 5724 5722 5721 5720 5719 5718 5716 5715 5714 5713 5711 5710 5709 5707 5706 5705 5703 5702 5700 5699 5697 5696 5694 5693 5691 5690 5688 5686 5685 5683
5735 5734 5733 5732 5731 5730 5729 5728 5726 5725 5724 5723 5721 5720 5719 5718 5716 5715 5714 5712 5711 5710 5709 5707 5706 5704 5703 5702 5700 5699 5697 5696 5694 5693 5691 5689 5688 5686 5684 5682 5681 5679
Wind_Speed
15 16 16 16 15 16 16 16 16 16 16 16 17 18 19 20 21 21 21 20 19 19 20 20 20 19 19 20 21 21 21 20 19 19 20 20 21 21 22 23 24 25
15 15 16 17 16 16 16 15 15 16 16 17 18 19 20 21 22 22 22 21 21 20 20 21 21 20 19 19 21 21 22 22 22 21 21 21 22 23 23 24 24 26
15 15 16 17 17 16 15 15 15 16 17 18 19 20 20 21 22 22 23 23 22 21 21 21 21 21 21 20 21 21 22 22 23 23 23 23 23 24 25 25 26 27
14 14 15 16 17 17 16 15 16 17 18 19 19 19 19 20 21 22 24 25 25 24 24 23 22 22 22 21 21 21 21 22 22 23 24 24 25 25 26 26 26 27
13 13 14 16 17 17 16 16 16 18 18 18 18 18 19 20 21 22 24 25 26 26 26 25 24 23 23 22 22 22 21 21 22 22 23 24 25 26 27 27 28 29
11 11 13 16 17 16 16 16 16 17 17 18 18 18 18 19 21 22 23 24 25 25 25 24 24 24 24 23 22 21 21 21 21 21 22 23 24 25 26 27 29 30
9 9 11 12 13 13 14 15 16 15 16 17 18 18 19 19 20 20 21 22 22 22 22 22 22 23 23 23 22 21 21 21 21 22 22 23 24 25 25 27 28 30
8 8 9 11 11 12 13 14 15 16 16 17 18 18 19 20 19 19 20 20 20 20 20 20 21 21 22 22 22 22 21 21 22 22 23 23 23 24 24 25 27 29
8 7 8 10 10 11 13 14 14 14 14 14 15 16 18 20 20 20 19 19 19 19 19 19 19 19 20 20 21 22 22 22 22 23 24 24 23 23 23 24 25 28
8 7 8 9 9 11 12 13 12 13 14 14 14 15 17 18 19 19 19 19 20 20 19 18 17 17 17 17 18 20 21 22 22 22 23 24 23 23 23 24 25 26
9 9 9 9 10 11 12 12 12 12 13 14 14 14 16 17 18 18 19 19 19 20 20 19 18 17 16 16 17 18 20 21 21 21 22 22 23 23 23 25 26 25
11 11 11 11 11 12 13 13 13 13 14 14 15 15 16 17 17 17 18 18 18 19 20 20 19 18 18 18 18 19 20 21 21 22 22 23 23 23 24 25 26 26
12 12 13 13 13 13 13 14 14 15 15 15 16 17 17 17 17 17 18 18 18 19 21 20 19 19 20 20 21 20 21 22 22 23 23 23 24 24 25 25 26 26
13 13 14 14 15 15 14 15 16 15 15 16 17 19 19 17 17 17 18 19 20 20 21 22 21 21 22 22 22 22 22 23 23 24 25 25 25 26 26 26 27 27
13 14 15 15 15 16 16 16 16 16 16 17 19 20 20 19 18 19 19 20 21 21 21 23 23 24 24 24 23 23 23 24 25 26 26 26 26 27 27 27 28 28
13 14 15 16 16 17 17 17 17 17 17 19 20 21 21 22 21 21 21 21 22 22 22 23 24 25 25 25 25 25 24 25 25 26 26 26 27 27 28 28 28 28
13 14 15 16 17 17 18 19 19 20 20 21 22 23 23 24 24 23 23 23 23 23 24 24 25 26 26 26 26 26 26 26 26 26 27 27 28 28 28 28 27 27
14 15 17 18 19 20 20 21 22 23 24 24 24 24 24 25 25 25 25 24 24 25 25 26 26 26 27 27 27 27 27 27 27 27 27 28 28 27 27 27 26 26
16 18 19 20 21 22 23 24 24 25 25 25 25 25 25 26 26 25 25 25 25 25 25 26 26 26 26 26 26 27 27 26 27 26 26 25 25 25 24 24 23 23
18 19 20 21 22 23 24 25 25 26 26 26 26 26 25 25 25 25 25 25 25 25 25 25 25 25 25 25 24 24 24 23 23 22 22 22 21 21 21 21 21 21
20 20 21 22 23 23 24 25 25 25 26 25 25 25 25 25 25 24 24 23 23 22 22 22 21 21 21 21 21 21 20 20 20 20 20 20 19 20 20 20 21 22
20 21 21 21 22 22 23 23 24 24 24 24 24 24 23 23 22 22 21 20 19 19 18 18 18 18 18 18 19 19 19 20 20 20 20 20 20 21 21 21 22 23
20 20 20 20 21 21 21 21 21 21 21 21 20 20 19 19 19 18 18 17 17 17 17 18 18 18 18 19 19 20 20 20 21 21 21 22 22 23 23 23 24 24
20 20 20 20 20 19 19 19 18 18 18 17 17 17 17 17 17 17 17 17 17 18 18 18 19 19 19 20 20 21 21 22 22 23 23 24 24 25 25 26 26 27
19 19 19 19 18 18 17 17 16 16 16 16 16 16 16 16 17 17 17 18 18 18 19 19 20 20 20 21 22 22 22 23 23 24 25 26 26 27 28 29 30 31
18 18 18 18 17 17 16 16 16 16 16 16 16 17 17 17 17 17 18 19 19 20 21 21 22 22 22 23 23 24 24 24 25 26 27 28 29 31 32 33 34 35
Wind_Direction
253 259 264 267 270 273 277 281 284 285 288 290 290 290 292 293 294 295 296 297 296 294 292 290 289 286 283 281 279 277 275 270 266 263 262 261 259 258 257 259 261 264
255 260 264 266 268 271 275 281 285 289 291 290 290 291 292 293 294 295 295 296 295 292 290 289 288 287 284 281 280 278 277 275 271 268 266 266 265 263 262 261 261 263
254 257 261 264 265 267 270 275 280 282 283 284 286 288 290 293 295 296 296 295 294 291 290 288 288 287 286 283 281 279 279 278 275 273 270 268 268 268 267 266 265 264
256 258 265 268 268 269 269 271 273 274 276 279 282 286 290 293 296 297 296 295 295 294 292 290 289 289 289 287 284 283 281 280 279 277 274 272 270 270 270 270 270 269
264 267 270 272 271 270 270 270 270 270 273 276 279 284 288 292 293 293 293 293 294 294 294 293 291 291 291 289 288 286 284 282 281 280 279 277 275 273 273 273 272 271
265 268 269 270 271 271 271 271 270 270 273 275 278 282 285 287 288 287 288 290 291 294 296 296 295 294 294 290 286 284 284 283 282 280 279 278 277 276 275 275 275 274
257 269 275 274 275 275 272 271 272 274 276 278 283 287 287 286 286 286 286 287 289 292 295 296 295 296 297 295 291 289 288 285 283 281 278 276 276 276 276 277 277 277
264 279 280 271 272 276 274 273 277 280 282 285 291 295 294 292 292 290 287 286 288 291 292 293 293 294 295 296 297 297 294 290 287 286 284 283 283 282 283 283 283 281
267 268 262 260 266 274 275 274 274 280 284 286 288 292 294 295 295 293 292 292 292 293 293 292 292 292 293 294 295 296 294 293 291 289 289 290 290 289 288 290 293 294
268 264 262 265 268 272 274 273 273 279 282 282 282 282 283 285 287 290 293 295 296 296 295 294 293 292 292 292 292 293 293 293 291 289 290 293 294 293 292 293 296 300
278 282 283 280 276 275 275 274 275 278 280 282 281 277 275 277 281 285 289 292 295 296 297 298 298 296 293 289 287 288 289 289 287 287 288 290 292 292 293 294 296 299
288 292 291 287 282 277 274 274 275 276 277 280 280 278 277 277 277 279 281 285 289 290 292 294 296 296 294 290 288 287 285 284 284 284 285 286 288 290 290 293 297 300
292 292 290 287 283 279 276 277 277 277 279 282 284 283 280 278 280 283 284 285 285 286 288 290 291 291 290 288 287 287 285 284 284 282 281 282 284 286 288 291 294 296
290 288 287 284 281 280 280 281 281 282 285 288 287 283 282 284 287 290 290 289 287 288 290 292 293 291 289 288 287 286 285 285 284 283 282 283 283 284 287 289 291 292
288 289 289 288 287 289 290 291 291 292 293 289 284 283 286 290 291 289 288 287 286 286 288 290 291 291 291 291 290 289 287 285 285 285 284 284 284 285 286 288 290 291
292 292 292 293 294 295 295 295 293 292 288 285 285 287 289 291 289 286 284 283 284 285 285 286 287 289 290 290 289 289 287 286 286 285 285 285 286 287 288 289 290 291
292 289 288 289 290 290 289 288 286 284 283 284 286 287 287 287 286 284 284 284 284 286 286 286 286 287 287 287 287 287 286 286 286 286 286 288 289 291 293 293 293 293
281 279 280 282 283 283 282 281 281 282 283 284 284 283 283 284 284 285 286 287 287 287 287 287 287 286 286 286 287 287 287 288 289 290 291 292 293 295 297 298 299 299
278 278 279 280 281 281 281 281 281 282 283 283 283 284 284 285 286 287 288 289 289 290 289 289 289 289 289 288 289 290 291 292 293 295 296 297 298 299 301 302 304 304
280 280 280 280 280 280 280 281 282 282 283 284 285 285 286 287 288 289 290 290 291 291 291 291 291 291 291 292 292 293 295 296 297 299 300 301 302 304 305 305 306 306
284 282 281 281 280 280 280 280 280 281 282 283 284 285 286 287 289 291 292 293 293 293 294 294 295 295 295 296 296 297 298 299 300 302 303 304 305 305 305 305 306 306
285 284 283 282 282 281 280 280 280 281 282 283 285 286 287 289 290 292 293 294 295 296 297 298 298 298 299 300 300 301 302 302 303 303 304 304 304 305 305 305 305 306
286 286 286 286 285 284 283 283 284 284 285 286 287 288 289 290 291 292 293 295 296 296 297 298 299 300 300 301 301 301 301 301 302 302 302 303 303 303 303 303 303 304
290 290 290 291 290 289 288 288 288 288 289 290 291 291 292 293 293 294 294 294 294 295 295 296 297 297 297 297 297 297 297 298 298 299 299 299 299 300 301 301 302 302
293 292 292 292 293 292 292 292 293 293 294 294 295 294 294 294 294 294 295 294 293 293 293 293 293 293 293 293 293 293 293 294 294 295 295 296 297 298 299 300 301 301
294 293 293 294 294 294 295 295 295 294 294 294 294 294 293 294 294 294 294 294 293 292 292 292 291 290 290 290 290 290 291 292 293 294 295 296 297 298 298 299 299 299